Location: Cisewo
(53.3833°N, 14.9000°E)
Time: 11:09:35
(UTC+00:00)

EO 1 Delta rocket - Pass Details

Date: 18 April 2021
Orbit: 697 x 1792 km, 95.4° (Epoch: 14 May)

Event Time Altitude Azimuth Distance (km) Brightness Sun altitude
Exits shadow 23:44:48 54° 115° (ESE) 864 4.1 -24.7°
Maximum altitude 23:45:30 61° 75° (ENE) 801 4.1 -24.7°
Drops below altitude 10° 23:50:05 10° 355° (N) 2,185 7.3 -24.5°
Sets 23:52:22 0° 352° (N) 3,145 8.3 -24.5°
